EW5295 Weather Reports


time (UTC)temp
C
wind
direction
speed
KPH
gust
KPH
rain 1hr
cm
rain 24hr
cm
rain mn
cm
humidity
%
barometer
mb
20260905234545 20 300 0.0 1.6 0.00 0.28 0.00 59 1014.7
20260905233044 19 127 0.0 1.6 0.00 0.28 0.00 57 1014.8
20260905231531 19 127 0.0 1.6 0.00 0.36 0.00 59 1014.9
20260905230034 19 172 0.0 3.2 0.00 0.36 0.00 61 1015.0
20260905224530 20 151 0.0 1.6 0.00 0.36 0.00 63 1015.1
20260905223041 20 156 0.0 1.6 0.00 0.36 0.00 58 1015.2
20260905221524 20 160 0.0 0.0 0.00 0.36 0.00 61 1015.3
20260905220019 19 145 0.0 1.6 0.00 0.36 0.00 62 1015.4
20260905214516 19 302 0.0 1.6 0.00 0.36 0.00 64 1015.5
20260905213014 18 155 0.0 0.0 0.00 0.36 0.00 68 1015.6
20260905211609 18 148 0.0 0.0 0.00 0.36 0.36 67 1015.7
20260905210117 18 148 0.0 0.0 0.00 0.36 0.36 67 1015.8
20260905204600 18 151 0.0 3.2 0.00 0.36 0.36 65 1015.9
20260905203055 18 121 0.0 0.0 0.00 0.36 0.36 71 1016.0
20260905201553 17 122 0.0 1.6 0.00 0.36 0.36 72 1016.0
20260905200114 17 120 0.0 1.6 0.00 0.36 0.36 72 1016.0
20260905194553 17 95 0.0 1.6 0.00 0.36 0.36 74 1016.1
20260905193052 17 158 0.0 4.8 0.00 0.36 0.36 72 1016.1
20260905191541 16 137 0.0 1.6 0.00 0.36 0.36 74 1016.2
20260905190040 16 131 0.0 0.0 0.00 0.36 0.36 77 1016.3
20260905184548 16 281 0.0 0.0 0.00 0.36 0.36 80 1016.5
20260905183043 16 281 0.0 0.0 0.00 0.36 0.36 79 1016.6
20260905181637 16 283 0.0 1.6 0.00 0.36 0.36 83 1016.6
20260905180041 15 289 0.0 0.0 0.00 0.36 0.36 83 1016.7
20260905174537 15 261 0.0 1.6 0.00 0.36 0.36 85 1016.7
20260905173043 15 161 0.0 0.0 0.00 0.36 0.36 91 1016.7
20260905171517 14 153 0.0 0.0 0.00 0.38 0.36 92 1016.7
20260905170018 13 158 0.0 0.0 0.00 0.38 0.36 94 1016.8
20260905164505 13 158 0.0 0.0 0.00 0.38 0.36 95 1016.8
20260905163004 12 158 0.0 0.0 0.00 0.38 0.36 96 1016.8
20260905161504 12 136 0.0 1.6 0.00 0.38 0.36 96 1016.8
20260905160004 12 133 0.0 0.0 0.00 0.38 0.36 97 1016.7
20260905154501 12 269 0.0 0.0 0.00 0.38 0.36 97 1016.7
20260905153001 12 269 0.0 0.0 0.00 0.38 0.36 97 1016.7
20260905151628 12 270 0.0 0.0 0.00 0.38 0.36 97 1016.6
20260905150057 -17 0.0 0.0 0.00 0.38 0.36 1016.6
20260905144545 -17 0.0 0.0 0.00 0.38 0.36 1016.6
20260905143037 -17 0.0 0.0 0.00 0.38 0.36 1016.6
20260905141532 -17 0.0 0.0 0.00 0.38 0.36 1016.5
20260905140027 -17 0.0 0.0 0.00 0.38 0.36 1016.4
20260905134532 -17 0.0 0.0 0.00 0.38 0.36 1016.4
20260905133019 -17 0.0 0.0 0.00 0.38 0.36 1016.3
20260905131515 -17 0.0 0.0 0.00 0.38 0.36 1016.4
20260905130011 -17 0.0 0.0 0.00 0.38 0.36 1016.2
20260905124556 -17 0.0 0.0 0.00 0.38 0.36 1016.1
20260905123107 -17 0.0 0.0 0.00 0.38 0.36 1016.0
20260905121549 11 285 0.0 0.0 0.00 0.41 0.36 96 1015.9
20260905120048 11 285 0.0 0.0 0.00 0.41 0.36 96 1015.9
20260905114549 11 285 0.0 0.0 0.00 0.41 0.36 96 1015.9
20260905113046 11 285 0.0 0.0 0.00 0.41 0.36 96 1015.9
20260905111554 11 285 0.0 0.0 0.00 0.48 0.36 96 1015.8
20260905110046 11 285 0.0 0.0 0.00 0.48 0.36 96 1015.8
20260905104533 11 285 0.0 0.0 0.00 0.48 0.36 96 1015.8
20260905103042 11 285 0.0 0.0 0.00 0.48 0.36 96 1016.0
20260905101533 11 285 0.0 0.0 0.03 0.48 0.36 96 1016.0
20260905100045 12 285 0.0 0.0 0.03 0.48 0.36 96 1016.0
20260905094532 12 285 0.0 0.0 0.03 0.48 0.36 96 1016.0
20260905093031 12 285 0.0 0.0 0.03 0.48 0.36 96 1016.0
20260905091536 12 285 0.0 0.0 0.00 0.46 0.33 96 1015.9
20260905090028 11 285 0.0 0.0 0.00 0.46 0.33 96 1015.9
20260905084516 11 287 0.0 0.0 0.00 0.46 0.33 96 1015.8
20260905083017 11 287 0.0 0.0 0.00 0.46 0.33 96 1015.6
20260905081518 11 287 0.0 0.0 0.00 0.46 0.33 96 1015.6
20260905080024 11 287 0.0 0.0 0.00 0.46 0.33 96 1015.5
20260905074512 11 287 0.0 0.0 0.00 0.46 0.33 96 1015.4
20260905073020 11 287 0.0 0.0 0.00 0.46 0.33 96 1015.4
20260905071509 11 287 0.0 0.0 0.00 0.46 0.33 96 1015.4
20260905070009 11 287 0.0 0.0 0.00 0.46 0.33 96 1015.4
20260905064507 11 287 0.0 0.0 0.00 0.46 0.33 96 1015.3
20260905063049 11 287 0.0 0.0 0.00 0.46 0.33 96 1015.2
20260905061554 11 287 0.0 0.0 0.00 0.46 0.33 95 1014.9
20260905060045 11 287 0.0 0.0 0.00 0.46 0.33 95 1014.9
20260905054536 11 287 0.0 0.0 0.00 0.46 0.33 95 1014.9
20260905053029 11 287 0.0 0.0 0.00 0.46 0.33 95 1015.0
20260905051528 11 287 0.0 0.0 0.00 0.46 0.33 95 1014.9
20260905050028 12 287 0.0 0.0 0.00 0.46 0.33 95 1015.0
20260905044535 12 287 0.0 0.0 0.00 0.46 0.33 95 1014.9
20260905043027 12 287 0.0 0.0 0.00 0.46 0.33 95 1015.0
20260905041523 11 287 0.0 0.0 0.00 0.46 0.33 94 1014.9
20260905040011 12 287 0.0 0.0 0.00 0.46 0.33 94 1014.7
20260905034508 12 287 0.0 0.0 0.00 0.46 0.33 94 1014.5
20260905033004 12 287 0.0 0.0 0.00 0.46 0.33 94 1014.4
20260905031502 12 288 0.0 0.0 0.00 0.46 0.33 94 1014.2
20260905024559 13 288 0.0 0.0 0.03 0.46 0.33 93 1014.0
20260905023057 13 288 0.0 0.0 0.03 0.46 0.33 92 1014.1
20260905021556 13 288 0.0 0.0 0.03 0.46 0.33 92 1014.0
20260905020050 13 288 0.0 0.0 0.08 0.46 0.33 91 1013.8
20260905014539 13 288 0.0 1.6 0.05 0.43 0.30 89 1013.7
20260905013037 14 288 0.0 1.6 0.05 0.43 0.30 89 1013.6
20260905011554 14 314 0.0 0.0 0.08 0.43 0.30 89 1013.5
20260905010040 15 161 0.0 0.0 0.08 0.38 0.25 89 1013.5
20260905004536 14 161 0.0 0.0 0.13 0.38 0.25 89 1013.3
20260905003044 14 161 0.0 1.6 0.18 0.38 0.25 91 1013.3
20260905001536 14 205 0.0 0.0 0.23 0.36 0.23 91 1013.6
20260905000019 14 218 0.0 0.0 0.18 0.30 0.18 90 1013.6